Вернуться в каталог

CZ-4 DEB

АктивенSSO
NORAD 20858·DEBRIS·🇨🇳 China

Запущен Sep 3, 1990 с Taiyuan Satellite Launch Center

Loading…

Ближайшие Пролёты (ближайшие 24 часа)

TLE

СвежийSource: Space-Track

Эпоха: Sep 14, 2026, 09:17 UTC

1 20858U 90081W   26257.38742951  .00002134  00000-0  46567-3 0  9993
2 20858  98.2386 295.4222 0029191 175.4698 197.1558 14.58624423878906

Отслеживайте CZ-4 DEB в реальном времени с AllMySat

Download on the App Store